When you browse on this site, cookies collect data to enhance your experience and personalize the content and advertising you see.
Visit our Privacy Policy to learn more. By continuing to use the site, you agree to this use of cookies and data.
  • In Czech Republic
  • List of Countries
  • For 7 days
  • Water Temperature
  • Weather Map
  • Weather Widgets
  • user-avatar
    Login

    Hourly Weather Achaea

    Today, 21 October, Monday

    Time Temperature Precipitation Wind Pressure Humidity
    00:00 +14°C° 0 mm 0 mps 689 mmHg 70%
    01:00 +15°C° 0 mm 1 mps 689 mmHg 71%
    02:00 +15°C° 0 mm 1 mps 689 mmHg 70%
    03:00 +14°C° 0 mm 1 mps 689 mmHg 70%
    04:00 +14°C° 0 mm 1 mps 689 mmHg 70%
    05:00 +15°C° 0 mm 1 mps 689 mmHg 68%
    06:00 +15°C° 0 mm 1 mps 689 mmHg 66%
    07:00 +16°C° 0 mm 1 mps 690 mmHg 64%
    08:00 +19°C° 0 mm 1 mps 690 mmHg 56%
    09:00 +21°C° 0 mm 1 mps 690 mmHg 48%
    10:00 +23°C° 0 mm 1 mps 691 mmHg 40%
    11:00 +24°C° 0 mm 2 mps 691 mmHg 38%
    12:00 +24°C° 0 mm 2 mps 691 mmHg 36%
    13:00 +25°C° 0 mm 2 mps 690 mmHg 34%
    14:00 +23°C° 0 mm 2 mps 690 mmHg 39%
    15:00 +21°C° 0 mm 2 mps 690 mmHg 44%
    16:00 +20°C° 0 mm 2 mps 689 mmHg 49%
    17:00 +19°C° 0 mm 2 mps 689 mmHg 52%
    18:00 +19°C° 0 mm 1 mps 689 mmHg 56%
    19:00 +16°C° 0 mm 1 mps 689 mmHg 59%
    20:00 +16°C° 0 mm 1 mps 689 mmHg 58%
    21:00 +16°C° 0 mm 1 mps 689 mmHg 58%
    22:00 +15°C° 0 mm 1 mps 689 mmHg 57%
    23:00 +15°C° 0 mm 1 mps 689 mmHg 57%

    Tomorrow, 22 October, Tuesday

    Time Temperature Precipitation Wind Pressure Humidity
    00:00 +15°C° 0 mm 1 mps 689 mmHg 56%
    01:00 +15°C° 0 mm 2 mps 688 mmHg 56%
    02:00 +15°C° 0 mm 2 mps 688 mmHg 56%
    03:00 +14°C° 0 mm 2 mps 688 mmHg 57%
    04:00 +14°C° 0 mm 2 mps 688 mmHg 57%
    05:00 +15°C° 0 mm 2 mps 688 mmHg 57%
    06:00 +15°C° 0 mm 2 mps 688 mmHg 56%
    07:00 +16°C° 0 mm 2 mps 689 mmHg 56%
    08:00 +18°C° 0 mm 2 mps 689 mmHg 48%
    09:00 +20°C° 0 mm 2 mps 690 mmHg 41%
    10:00 +23°C° 0 mm 2 mps 690 mmHg 34%
    11:00 +22°C° 0 mm 3 mps 690 mmHg 32%
    12:00 +22°C° 0 mm 3 mps 690 mmHg 31%
    13:00 +24°C° 0 mm 3 mps 689 mmHg 29%
    14:00 +22°C° 0 mm 3 mps 689 mmHg 32%
    15:00 +21°C° 0 mm 2 mps 689 mmHg 35%
    16:00 +20°C° 0 mm 2 mps 689 mmHg 38%
    17:00 +18°C° 0 mm 2 mps 688 mmHg 41%
    18:00 +17°C° 0 mm 2 mps 688 mmHg 45%
    19:00 +15°C° 0 mm 2 mps 688 mmHg 49%
    20:00 +14°C° 0 mm 3 mps 688 mmHg 48%
    21:00 +14°C° 0 mm 3 mps 688 mmHg 47%
    22:00 +13°C° 0 mm 3 mps 688 mmHg 46%
    23:00 +13°C° 0 mm 3 mps 688 mmHg 48%

    Day after tomorrow, 23 October, Wednesday

    Time Temperature Precipitation Wind Pressure Humidity
    00:00 +13°C° 0 mm 3 mps 688 mmHg 49%
    01:00 +13°C° 0 mm 3 mps 688 mmHg 50%
    02:00 +12°C° 0 mm 3 mps 687 mmHg 52%
    03:00 +12°C° 0 mm 3 mps 687 mmHg 54%
    04:00 +12°C° 0 mm 3 mps 687 mmHg 56%
    05:00 +12°C° 0 mm 3 mps 687 mmHg 54%
    06:00 +14°C° 0 mm 2 mps 687 mmHg 53%
    07:00 +14°C° 0 mm 2 mps 688 mmHg 51%
    08:00 +17°C° 0 mm 3 mps 688 mmHg 42%
    09:00 +19°C° 0 mm 3 mps 689 mmHg 32%
    10:00 +21°C° 0 mm 3 mps 689 mmHg 23%
    11:00 +22°C° 0 mm 3 mps 689 mmHg 21%
    12:00 +22°C° 0 mm 3 mps 689 mmHg 20%
    13:00 +24°C° 0 mm 3 mps 689 mmHg 18%
    14:00 +22°C° 0 mm 3 mps 688 mmHg 21%
    15:00 +21°C° 0 mm 2 mps 688 mmHg 24%
    16:00 +20°C° 0 mm 2 mps 688 mmHg 27%
    17:00 +18°C° 0 mm 2 mps 688 mmHg 29%
    18:00 +16°C° 0 mm 2 mps 688 mmHg 30%
    19:00 +15°C° 0 mm 2 mps 688 mmHg 31%
    20:00 +14°C° 0 mm 2 mps 688 mmHg 31%
    21:00 +14°C° 0 mm 2 mps 687 mmHg 31%
    22:00 +14°C° 0 mm 2 mps 687 mmHg 30%
    23:00 +13°C° 0 mm 2 mps 687 mmHg 30%

    24 October, Thursday

    Time Temperature Precipitation Wind Pressure Humidity
    00:00 +13°C° 0 mm 2 mps 687 mmHg 30%
    01:00 +13°C° 0 mm 2 mps 687 mmHg 30%
    02:00 +13°C° 0 mm 2 mps 687 mmHg 30%
    03:00 +13°C° 0 mm 2 mps 687 mmHg 30%
    04:00 +12°C° 0 mm 2 mps 686 mmHg 30%
    05:00 +13°C° 0 mm 2 mps 687 mmHg 30%
    06:00 +14°C° 0 mm 2 mps 687 mmHg 31%
    07:00 +14°C° 0 mm 2 mps 687 mmHg 31%
    08:00 +17°C° 0 mm 2 mps 687 mmHg 27%
    09:00 +19°C° 0 mm 2 mps 688 mmHg 23%
    10:00 +23°C° 0 mm 2 mps 688 mmHg 19%
    11:00 +23°C° 0 mm 2 mps 688 mmHg 18%
    12:00 +24°C° 0 mm 2 mps 688 mmHg 18%
    13:00 +24°C° 0 mm 2 mps 688 mmHg 17%
    14:00 +23°C° 0 mm 2 mps 687 mmHg 22%
    15:00 +21°C° 0 mm 2 mps 687 mmHg 27%
    16:00 +19°C° 0 mm 2 mps 687 mmHg 32%
    17:00 +19°C° 0 mm 1 mps 687 mmHg 34%
    18:00 +16°C° 0 mm 1 mps 686 mmHg 37%
    19:00 +15°C° 0 mm 1 mps 686 mmHg 39%
    20:00 +14°C° 0 mm 1 mps 686 mmHg 38%
    21:00 +14°C° 0 mm 2 mps 686 mmHg 37%
    22:00 +14°C° 0 mm 2 mps 686 mmHg 36%
    23:00 +13°C° 0 mm 2 mps 686 mmHg 35%

    25 October, Friday

    Time Temperature Precipitation Wind Pressure Humidity
    00:00 +13°C° 0 mm 2 mps 686 mmHg 34%
    01:00 +13°C° 0 mm 2 mps 686 mmHg 33%
    02:00 +13°C° 0 mm 2 mps 686 mmHg 32%
    03:00 +13°C° 0 mm 2 mps 686 mmHg 32%
    04:00 +12°C° 0 mm 1 mps 685 mmHg 32%
    05:00 +13°C° 0 mm 1 mps 686 mmHg 33%
    06:00 +14°C° 0 mm 2 mps 686 mmHg 34%
    07:00 +14°C° 0 mm 2 mps 686 mmHg 35%
    08:00 +17°C° 0 mm 2 mps 687 mmHg 31%
    09:00 +20°C° 0 mm 1 mps 688 mmHg 27%
    10:00 +23°C° 0 mm 1 mps 688 mmHg 23%
    11:00 +23°C° 0 mm 2 mps 688 mmHg 23%
    12:00 +23°C° 0 mm 2 mps 688 mmHg 23%
    13:00 +24°C° 0 mm 2 mps 688 mmHg 23%
    14:00 +21°C° 0 mm 2 mps 688 mmHg 29%
    15:00 +21°C° 0 mm 1 mps 687 mmHg 34%
    16:00 +19°C° 0 mm 1 mps 687 mmHg 39%
    17:00 +18°C° 0 mm 1 mps 687 mmHg 41%
    18:00 +16°C° 0 mm 1 mps 687 mmHg 43%
    19:00 +15°C° 0 mm 1 mps 687 mmHg 45%
    20:00 +15°C° 0 mm 1 mps 687 mmHg 44%
    21:00 +15°C° 0 mm 1 mps 687 mmHg 43%
    22:00 +14°C° 0 mm 2 mps 687 mmHg 41%
    23:00 +14°C° 0 mm 1 mps 687 mmHg 41%

    26 October, Saturday

    Time Temperature Precipitation Wind Pressure Humidity
    00:00 +14°C° 0 mm 1 mps 687 mmHg 40%
    01:00 +14°C° 0 mm 1 mps 687 mmHg 40%
    02:00 +14°C° 0 mm 1 mps 687 mmHg 39%
    03:00 +13°C° 0 mm 2 mps 687 mmHg 39%
    04:00 +13°C° 0 mm 2 mps 687 mmHg 38%
    05:00 +14°C° 0 mm 2 mps 687 mmHg 38%
    06:00 +14°C° 0 mm 2 mps 688 mmHg 37%
    07:00 +15°C° 0 mm 2 mps 688 mmHg 37%
    08:00 +17°C° 0 mm 2 mps 688 mmHg 33%
    09:00 +20°C° 0 mm 2 mps 689 mmHg 29%
    10:00 +23°C° 0 mm 2 mps 690 mmHg 25%
    11:00 +24°C° 0 mm 2 mps 689 mmHg 24%
    12:00 +24°C° 0 mm 2 mps 689 mmHg 24%
    13:00 +25°C° 0 mm 2 mps 689 mmHg 24%
    14:00 +23°C° 0 mm 2 mps 689 mmHg 29%
    15:00 +21°C° 0 mm 2 mps 688 mmHg 34%
    16:00 +20°C° 0 mm 1 mps 688 mmHg 39%
    17:00 +19°C° 0 mm 1 mps 688 mmHg 41%
    18:00 +18°C° 0 mm 1 mps 687 mmHg 44%
    19:00 +15°C° 0 mm 1 mps 687 mmHg 47%
    20:00 +15°C° 0 mm 1 mps 687 mmHg 46%
    21:00 +15°C° 0 mm 1 mps 688 mmHg 45%
    22:00 +14°C° 0 mm 1 mps 688 mmHg 45%
    23:00 +14°C° 0 mm 1 mps 687 mmHg 45%

    27 October, Sunday

    Time Temperature Precipitation Wind Pressure Humidity
    00:00 +14°C° 0 mm 1 mps 687 mmHg 45%
    01:00 +14°C° 0 mm 1 mps 687 mmHg 45%
    02:00 +13°C° 0 mm 1 mps 687 mmHg 45%
    03:00 +13°C° 0 mm 1 mps 687 mmHg 45%
    04:00 +13°C° 0 mm 1 mps 687 mmHg 45%
    05:00 +14°C° 0 mm 1 mps 687 mmHg 44%
    06:00 +14°C° 0 mm 1 mps 687 mmHg 43%
    07:00 +15°C° 0 mm 1 mps 687 mmHg 42%
    08:00 +18°C° 0 mm 1 mps 688 mmHg 38%
    09:00 +20°C° 0 mm 1 mps 688 mmHg 33%
    10:00 +22°C° 0 mm 1 mps 689 mmHg 29%
    11:00 +23°C° 0 mm 1 mps 689 mmHg 29%
    12:00 +23°C° 0 mm 2 mps 689 mmHg 29%
    13:00 +23°C° 0 mm 2 mps 689 mmHg 29%
    14:00 +21°C° 0 mm 2 mps 688 mmHg 34%
    15:00 +21°C° 0 mm 1 mps 688 mmHg 40%
    16:00 +19°C° 0 mm 1 mps 688 mmHg 45%
    17:00 +18°C° 0 mm 1 mps 688 mmHg 50%
    18:00 +16°C° 0 mm 1 mps 687 mmHg 54%
    19:00 +13°C° 0 mm 0 mps 687 mmHg 59%
    20:00 +13°C° 0 mm 0 mps 688 mmHg 59%
    21:00 +14°C° 0 mm 1 mps 688 mmHg 58%
    22:00 +13°C° 0 mm 1 mps 688 mmHg 58%
    23:00 +13°C° 0 mm 1 mps 688 mmHg 57%
    Show more